カタログに戻る

HOTBIRD 13G

運用中通信GEO
NORAD 54225·PAYLOAD·🇪🇺 EU

打ち上げ Nov 3, 2022 から Cape Canaveral Space Force Station

Loading…

TLE

最新Source: Space-Track

元期: Sep 14, 2026, 13:51 UTC

1 54225U 22146A   26257.57770103  .00000079  00000-0  00000-0 0  9991
2 54225   0.0508 235.0558 0002069 301.3331  38.1367  1.00273434  8361

AllMySatでHOTBIRD 13Gをリアルタイム追跡

Download on the App Store